Weather History for Henderson, KY

Change the Weather History Date:

Saturday, November 23, 2013

  Actual Average Record
Temperature  
Mean Temperature 31 °F -  
Max Temperature 41 °F 53 °F 73 °F (1999)
Min Temperature 21 °F 36 °F 13 °F (1937)
Degree Days  
Heating Degree Days 34    
Moisture  
Dew Point 20 °F    
Average Humidity 62    
Maximum Humidity 81    
Minimum Humidity 42    
Precipitation  
Precipitation 0.00 in - - ()
Sea Level Pressure  
Sea Level Pressure 30.53 in    
Wind  
Wind Speed 10 mph (NNW)    
Max Wind Speed 18 mph    
Max Gust Speed 26 mph    
Visibility 10 miles    
Events      
Averages and records for this station are not official NWS values.
T = Trace of Precipitation, MM = Missing Value Source: NWS Daily Summary

Daily Weather History Graph

Daily Weather History Graph

Search for Another Location

Airport:

Trip Planner

Search our weather history database for the weather conditions in past years. The results will help you decide how hot, cold, wet, or windy it might be!

Date:

Astronomy

Nov. 23, 2013 Rise Set
Actual Time 6:39 AM CST 4:34 PM CST
Civil Twilight 6:11 AM CST 5:02 PM CST
Nautical Twilight 5:39 AM CST 5:35 PM CST
Astronomical Twilight 5:07 AM CST 6:06 PM CST
Moon 10:00 PM CST (11/23) 10:58 AM CST (11/23)
Length of Visible Light 10h 51m
Length of Day
9h 54m
Waning Gibbous, 69% of the Moon is Illuminated
Nov 23
Waning Gibbous
Nov 25
Last Quarter
Dec 2
New
Dec 9
First Quarter
Dec 17
Full

Hourly Weather History & Observations

Time (CST) Temp. Windchill Dew Point Humidity Pressure Visibility Wind Dir Wind Speed Gust Speed Precip Events Conditions
12:15 AM 39.2 °F 33.0 °F 30.2 °F 70% 30.43 in 10.0 mi North 9.2 mph 19.6 mph N/A   Overcast
12:35 AM 39.2 °F 32.5 °F 30.2 °F 70% 30.43 in 10.0 mi NNE 10.4 mph - N/A   Mostly Cloudy
12:55 AM 39.2 °F 31.6 °F 28.4 °F 65% 30.43 in 10.0 mi North 12.7 mph - N/A   Mostly Cloudy
1:15 AM 37.4 °F 31.4 °F 30.2 °F 75% 30.43 in 10.0 mi North 8.1 mph - N/A   Scattered Clouds
1:35 AM 37.4 °F 32.8 °F 28.4 °F 70% 30.44 in 10.0 mi North 5.8 mph - N/A   Scattered Clouds
1:55 AM 37.4 °F 29.8 °F 28.4 °F 70% 30.44 in 10.0 mi NNE 11.5 mph - N/A   Clear
2:15 AM 35.6 °F 28.6 °F 28.4 °F 75% 30.45 in 10.0 mi NNE 9.2 mph - N/A   Clear
2:35 AM 35.6 °F 29.9 °F 28.4 °F 75% 30.45 in 10.0 mi North 6.9 mph - N/A   Scattered Clouds
2:55 AM 35.6 °F 28.6 °F 28.4 °F 75% 30.44 in 10.0 mi North 9.2 mph - N/A   Scattered Clouds
3:15 AM 35.6 °F 29.9 °F 28.4 °F 75% 30.44 in 10.0 mi North 6.9 mph - N/A   Partly Cloudy
3:35 AM 35.6 °F 28.0 °F 28.4 °F 75% 30.43 in 10.0 mi North 10.4 mph - N/A   Clear
3:55 AM 35.6 °F 29.9 °F 28.4 °F 75% 30.45 in 10.0 mi North 6.9 mph 16.1 mph N/A   Partly Cloudy
4:15 AM 33.8 °F 27.0 °F 26.6 °F 75% 30.45 in 10.0 mi North 8.1 mph - N/A   Partly Cloudy
4:35 AM 33.8 °F 26.4 °F 26.6 °F 75% 30.47 in 10.0 mi NNW 9.2 mph - N/A   Partly Cloudy
4:55 AM 33.8 °F 27.7 °F 26.6 °F 75% 30.48 in 10.0 mi NNW 6.9 mph - N/A   Clear
5:15 AM 33.8 °F 27.0 °F 26.6 °F 75% 30.48 in 10.0 mi NNW 8.1 mph - N/A   Clear
5:35 AM 33.8 °F 27.7 °F 26.6 °F 75% 30.48 in 10.0 mi North 6.9 mph - N/A   Clear
5:55 AM 33.8 °F 27.7 °F 26.6 °F 75% 30.48 in 10.0 mi NNW 6.9 mph - N/A   Clear
6:15 AM 33.8 °F 27.0 °F 28.4 °F 81% 30.48 in 10.0 mi NNW 8.1 mph - N/A   Clear
6:35 AM 33.8 °F 28.6 °F 28.4 °F 81% 30.48 in 10.0 mi North 5.8 mph - N/A   Clear
6:55 AM 33.8 °F 27.7 °F 28.4 °F 81% 30.49 in 10.0 mi North 6.9 mph - N/A   Clear
7:15 AM 33.8 °F 27.7 °F 28.4 °F 81% 30.50 in 10.0 mi NNW 6.9 mph - N/A   Clear
7:35 AM 33.8 °F 27.0 °F 28.4 °F 81% 30.50 in 10.0 mi NNW 8.1 mph - N/A   Clear
7:55 AM 33.8 °F 27.0 °F 26.6 °F 75% 30.51 in 10.0 mi NNW 8.1 mph - N/A   Clear
8:15 AM 33.8 °F 28.6 °F 26.6 °F 75% 30.53 in 10.0 mi NNW 5.8 mph - N/A   Clear
8:35 AM 33.8 °F 27.0 °F 24.8 °F 70% 30.52 in 10.0 mi NNW 8.1 mph - N/A   Clear
8:55 AM 33.8 °F 27.0 °F 24.8 °F 70% 30.53 in 10.0 mi NNW 8.1 mph - N/A   Clear
9:15 AM 35.6 °F 29.2 °F 26.6 °F 70% 30.53 in 10.0 mi NNW 8.1 mph - N/A   Clear
9:35 AM 35.6 °F 29.9 °F 24.8 °F 65% 30.53 in 10.0 mi NNW 6.9 mph - N/A   Clear
9:55 AM 35.6 °F 28.6 °F 24.8 °F 65% 30.53 in 10.0 mi NW 9.2 mph - N/A   Clear
10:15 AM 37.4 °F 30.8 °F 21.2 °F 52% 30.52 in 10.0 mi NW 9.2 mph - N/A   Clear
10:35 AM 39.2 °F 33.0 °F 21.2 °F 49% 30.52 in 10.0 mi NW 9.2 mph 16.1 mph N/A   Clear
10:55 AM 39.2 °F 31.6 °F 23.0 °F 52% 30.51 in 10.0 mi WNW 12.7 mph - N/A   Clear
11:15 AM 37.4 °F 30.3 °F 19.4 °F 48% 30.50 in 10.0 mi WNW 10.4 mph - N/A   Clear
11:35 AM 41.0 °F 32.5 °F 19.4 °F 42% 30.49 in 10.0 mi WNW 17.3 mph 20.7 mph N/A   Clear
11:55 AM 41.0 °F 33.5 °F 21.2 °F 45% 30.49 in 10.0 mi NW 13.8 mph 17.3 mph N/A   Clear
12:15 PM 41.0 °F 32.5 °F 19.4 °F 42% 30.49 in 10.0 mi WNW 17.3 mph - N/A   Clear
12:35 PM 41.0 °F 34.3 °F 21.2 °F 45% 30.49 in 10.0 mi NW 11.5 mph 18.4 mph N/A   Clear
12:55 PM 39.2 °F 31.2 °F 19.4 °F 45% 30.49 in 10.0 mi North 13.8 mph 25.3 mph N/A   Clear
1:15 PM 39.2 °F 31.6 °F 19.4 °F 45% 30.50 in 10.0 mi NNW 12.7 mph 21.9 mph N/A   Clear
1:35 PM 37.4 °F 28.9 °F 19.4 °F 48% 30.50 in 10.0 mi NNW 13.8 mph 25.3 mph N/A   Clear
1:55 PM 35.6 °F 27.1 °F 21.2 °F 56% 30.51 in 10.0 mi North 12.7 mph 21.9 mph N/A   Partly Cloudy
2:15 PM 35.6 °F 25.5 °F 17.6 °F 48% 30.52 in 10.0 mi NNW 17.3 mph 21.9 mph N/A   Partly Cloudy
2:35 PM 35.6 °F 25.5 °F 17.6 °F 48% 30.53 in 10.0 mi NW 17.3 mph 25.3 mph N/A   Clear
2:55 PM 33.8 °F 23.9 °F 19.4 °F 56% 30.53 in 10.0 mi NNW 15.0 mph 23.0 mph N/A   Scattered Clouds
3:15 PM 33.8 °F 24.8 °F 17.6 °F 52% 30.54 in 10.0 mi NNW 12.7 mph 23.0 mph N/A   Scattered Clouds
3:35 PM 33.8 °F 23.9 °F 17.6 °F 52% 30.54 in 10.0 mi NNW 15.0 mph - N/A   Mostly Cloudy
3:55 PM 32.0 °F 22.1 °F 15.8 °F 51% 30.56 in 10.0 mi North 13.8 mph 23.0 mph N/A   Mostly Cloudy
4:15 PM 30.2 °F 21.9 °F 15.8 °F 55% 30.56 in 10.0 mi North 9.2 mph 20.7 mph N/A   Partly Cloudy
4:35 PM 30.2 °F 20.2 °F 15.8 °F 55% 30.57 in 10.0 mi North 12.7 mph 19.6 mph N/A   Mostly Cloudy
4:55 PM 30.2 °F 20.2 °F 15.8 °F 55% 30.57 in 10.0 mi North 12.7 mph 20.7 mph N/A   Overcast
5:15 PM 28.4 °F 17.5 °F 14.0 °F 55% 30.58 in 10.0 mi North 13.8 mph 24.2 mph N/A   Overcast
5:35 PM 28.4 °F 18.0 °F 15.8 °F 59% 30.59 in 10.0 mi North 12.7 mph 21.9 mph N/A   Overcast
5:55 PM 28.4 °F 16.6 °F 14.0 °F 55% 30.60 in 10.0 mi North 16.1 mph 21.9 mph N/A   Overcast
6:15 PM 26.6 °F 15.7 °F 12.2 °F 55% 30.60 in 10.0 mi North 12.7 mph 20.7 mph N/A   Mostly Cloudy
6:35 PM 26.6 °F 15.7 °F 14.0 °F 59% 30.61 in 10.0 mi NNW 12.7 mph 21.9 mph N/A   Mostly Cloudy
6:55 PM 26.6 °F 15.7 °F 15.8 °F 64% 30.61 in 10.0 mi North 12.7 mph 19.6 mph N/A   Overcast
7:15 PM 26.6 °F 17.5 °F 12.2 °F 55% 30.62 in 10.0 mi NNW 9.2 mph 18.4 mph N/A   Mostly Cloudy
7:35 PM 26.6 °F 14.7 °F 14.0 °F 59% 30.62 in 10.0 mi NNE 15.0 mph 18.4 mph N/A   Overcast
7:55 PM 24.8 °F 11.1 °F 12.2 °F 59% 30.63 in 10.0 mi North 18.4 mph 26.5 mph N/A   Overcast
8:15 PM 24.8 °F 13.4 °F 12.2 °F 59% 30.64 in 10.0 mi North 12.7 mph 23.0 mph N/A   Mostly Cloudy
8:35 PM 24.8 °F 14.6 °F 10.4 °F 54% 30.64 in 10.0 mi North 10.4 mph 24.2 mph N/A   Scattered Clouds
8:55 PM 24.8 °F 11.9 °F 12.2 °F 59% 30.65 in 10.0 mi North 16.1 mph 20.7 mph N/A   Mostly Cloudy
9:15 PM 24.8 °F 14.0 °F 12.2 °F 59% 30.65 in 10.0 mi NNW 11.5 mph - N/A   Overcast
9:35 PM 24.8 °F 14.0 °F 10.4 °F 54% 30.66 in 10.0 mi NNW 11.5 mph 18.4 mph N/A   Overcast
9:55 PM 24.8 °F 11.9 °F 10.4 °F 54% 30.65 in 10.0 mi North 16.1 mph - N/A   Mostly Cloudy
10:15 PM 24.8 °F 14.0 °F 10.4 °F 54% 30.66 in 10.0 mi NNE 11.5 mph 19.6 mph N/A   Partly Cloudy
10:35 PM 23.0 °F 12.4 °F 10.4 °F 59% 30.66 in 10.0 mi North 10.4 mph 17.3 mph N/A   Clear
10:55 PM 23.0 °F 11.1 °F 10.4 °F 59% 30.66 in 10.0 mi North 12.7 mph - N/A   Clear
11:15 PM 23.0 °F 13.1 °F 10.4 °F 59% 30.66 in 10.0 mi North 9.2 mph - N/A   Clear
11:35 PM 21.2 °F 10.1 °F 8.6 °F 58% 30.67 in 10.0 mi North 10.4 mph - N/A   Clear
11:55 PM 21.2 °F 10.9 °F 8.6 °F 58% 30.66 in 10.0 mi North 9.2 mph 16.1 mph N/A   Clear